Regional Weather Roundup
Issued by NWS

Home | Current Version | Previous Version | Graphics & Text | Print | Product List | Glossary On
Versions: 1 2 3 4 5 6 7 8 9 10 11 12 13 14 15 16 17 18 19 20 21 22 23 24 25 26 27 28 29 30 31 32 33 34 35 36 37 38 39 40 41 42 43 44 45 46 47 48 49 50
000
ASUS44 KMEG 281510
RWRTN
TENNESSEE HOURLY STATE WEATHER ROUNDUP
NATIONAL WEATHER SERVICE MEMPHIS TN
1000 AM CDT WED JUN 28 2017

TNZ002-004-019-021-049-052-054-088>092-281600-
WEST TENNESSEE

CITY           SKY/WX    TMP DP  RH WIND       PRES   REMARKS
MEMPHIS INTL   MOSUNNY   82  65  56 S9        30.08S
NWS MEMPHIS      N/A     82 N/A N/A MISG        N/A
JACKSON        SUNNY     79  64  60 S7        30.10F
SOMERVILLE     SUNNY     79  64  61 S6G12     30.09S
COVINGTON      SUNNY     79  64  61 S8        30.08F
UNION CITY     SUNNY     79  63  57 S9G16     30.09S
BOLIVAR        SUNNY     81  64  57 SE8       30.10S
HUNTINGDON     SUNNY     79  63  57 S8        30.11S
LEXINGTON      SUNNY     77  63  61 SE5       30.12S
SELMER         SUNNY     79  64  61 SE9       30.11F
SAVANNAH       SUNNY     79  61  53 S10       30.11S
$$

TNZ008-025-027-028-033-062-065-066-281600-
NORTH MIDDLE TENNESSEE

CITY           SKY/WX    TMP DP  RH WIND       PRES   REMARKS
NASHVILLE      MOSUNNY   79  57  46 SE8       30.16R
PORTLAND       SUNNY     77  55  47 S13       30.16R
CLARKSVILLE    SUNNY     77  55  46 SE9       30.14S
SMYRNA         SUNNY     77  60  55 E3        30.17R
COOKEVILLE     SUNNY     77  54  44 S7        30.17S
GALLATIN       SUNNY     75  59  57 S6        30.19R
CROSSVILLE     SUNNY     70  53  54 VRB5      30.22S
$$

TNZ061-075-076-078-094-096-097-281600-
SOUTH MIDDLE TENNESSEE

CITY           SKY/WX    TMP DP  RH WIND       PRES   REMARKS
FAYETTEVILLE   SUNNY     77  59  53 SE6       30.14F
TULLAHOMA      SUNNY     75  54  46 SE6       30.17S
WINCHESTER     SUNNY     77  55  47 SE6       30.16F
MCMINNVILLE    SUNNY     77  55  47 SE6       30.17S
COLUMBIA       SUNNY     77  59  53 CALM      30.13R
SHELBYVILLE    SUNNY     77  57  50 SE5       30.15S
$$

TNZ017-018-042-046-047-281600-
NORTHEAST TENNESSEE

CITY           SKY/WX    TMP DP  RH WIND       PRES   REMARKS
TRI CITIES     MOSUNNY   71  56  58 CALM      30.23F
ELIZABETHTON   SUNNY     72  54  53 CALM      30.23F
$$

TNZ012-013-036-069-073-074-281600-
CENTRAL EAST TENNESSEE

CITY           SKY/WX    TMP DP  RH WIND       PRES   REMARKS
KNOXVILLE      MOSUNNY   73  55  53 NE3       30.18F
OAK RIDGE      SUNNY     72  55  55 VRB6      30.20F
DOWNTOWN KNOXV SUNNY     73  59  60 CALM      30.18F
GATLINBURG     SUNNY     72  57  60 NE5       30.19F
MORRISTOWN     SUNNY     73  55  53 SE7       30.20F
JACKSBORO      SUNNY     72  54  53 CALM      30.24F
$$

TNZ083-085-099-281600-
SOUTHEAST TENNESSEE

CITY           SKY/WX    TMP DP  RH WIND       PRES   REMARKS
CHATTANOOGA    MOSUNNY   75  58  55 CALM      30.17F
DAYTON         SUNNY     73  63  68 CALM      30.17F
$$

SKY/WX REPORTED AS FAIR MEANS FEW OR NO CLOUDS BELOW
12 THOUSAND FEET.




USA.gov is the U.S. government's official web portal to all federal, state and local government web resources and services.